Content
SEND FEEDBACK

Daily
Averages
Monthly
Summary
United States of America

WILMINGTON, NORTH CAROLINA


Home > North America > United States > North Carolina
Elevation: 72 feet     Latitude: 34 16N     Longitude: 077 54W

WEATHER
 
SELECT A DAY
Number of Records: 208,961;   Date Range: 1/1/95 - 8/28/14
 
SHARE

PRINT THIS DATA

[ ← Previous Day ]
WEATHER ALMANAC - APRIL 17, 2013
[ Next Day → ]
[ °C ]   °F
Weather ElementAverageHighLow
Temperature67.7 °F79 °F (1:53 pm)55 °F (6:53 am)
Dewpoint58.4 °F62.6 °F (9:53 am)53.1 °F (6:53 am)
Humidity74.4 %93 % (2:53 am)52 % (1:53 pm)
Barometer30.20 in30.25 in (7:53 am)30.16 in (4:53 pm)
Wind Speed2.4 mph9.2 mph (1:53 pm)
Weather ElementAverage
Visibility10 mi
Wind DirectionNE (41.3 °)

Weather ElementTotal
Precipitation---
Cooling Degree Days2 (Base 65)
Growing Degree Days17 (Base 50)
Averaged from 23 records on April 17, 2013
WEATHER CONDITIONS BREAKOUT
WIND DIRECTION BREAKOUT
WEATHER BY HOUR - APRIL 17, 2013
[ °C ]   °F
Local TimeTemperatureDewpointHumidityBarometerVisibilityWind DirectionWind SpeedGust SpeedPrecipitationEventsConditions
1:53 AM57.9 °F55.0 °F90 %30.23 in10.0 miCalmClear
2:53 AM57.0 °F55.0 °F93 %30.22 in10.0 miCalmClear
3:53 AM55.9 °F54.0 °F93 %30.21 in9.0 miCalmClear
4:53 AM57.0 °F55.0 °F93 %30.20 in10.0 miCalmClear
5:53 AM55.9 °F54.0 °F93 %30.20 in10.0 miCalmClear
6:53 AM55.0 °F53.1 °F93 %30.22 in10.0 miCalmClear
7:53 AM59.0 °F57.0 °F93 %30.25 in10.0 miCalmClear
8:53 AM66.9 °F61.0 °F81 %30.25 in10.0 miCalmClear
9:53 AM73.4 °F62.6 °F69 %30.24 in10.0 miCalmClear
10:53 AM75.9 °F61.0 °F60 %30.23 in10.0 miCalmClear
11:53 AM78.1 °F60.1 °F54 %30.22 in10.0 miCalmClear
12:53 PM77.0 °F61.0 °F58 %30.20 in10.0 miCalmMostly Cloudy
1:53 PM79.0 °F60.1 °F52 %30.19 in10.0 miSE (130°)9.2 mphPartly Cloudy
2:53 PM77.0 °F60.1 °F56 %30.18 in10.0 miSE (130°)9.2 mphPartly Cloudy
3:53 PM75.9 °F57.0 °F52 %30.17 in10.0 miSE (140°)8.1 mphClear
4:53 PM77.0 °F59.0 °F54 %30.16 in10.0 miSE (130°)8.1 mphClear
5:53 PM75.9 °F57.0 °F52 %30.16 in10.0 miSE (130°)6.9 mphClear
6:53 PM72.0 °F59.0 °F64 %30.16 in10.0 miSE (140°)9.2 mphClear
7:53 PM70.0 °F61.0 °F73 %30.17 in10.0 miSSE (150°)3.5 mphClear
8:53 PM68.0 °F61.0 °F78 %30.18 in10.0 miCalmClear
9:53 PM66.0 °F61.0 °F84 %30.19 in10.0 miCalmClear
10:53 PM64.9 °F61.0 °F87 %30.19 in10.0 miCalmClear
11:53 PM62.1 °F59.0 °F90 %30.18 in10.0 miCalmClear
Hourly data recorded from KILM, located miles away from Wilmington, North Carolina







STORIES FROM OUR PARTNERS